Weather History for KSUW - November, 2011

Change the Weather History Date:

Sunday, November 20, 2011

  Actual Average Record
Temperature  
Mean Temperature 14 °F -  
Max Temperature 21 °F 36 °F 58 °F (1982)
Min Temperature 6 °F 22 °F -1 °F (2014)
Degree Days  
Heating Degree Days 52    
Moisture  
Dew Point 10 °F    
Average Humidity 78    
Maximum Humidity 93    
Minimum Humidity 68    
Precipitation  
Precipitation 0.00 in - - ()
Sea Level Pressure  
Sea Level Pressure 30.30 in    
Wind  
Wind Speed 5 mph (West)    
Max Wind Speed 12 mph    
Max Gust Speed -    
Visibility 10 miles    
Events      
Averages and records for this station are not official NWS values.
T = Trace of Precipitation, MM = Missing Value Source: NWS Daily Summary

Daily Weather History Graph

Daily Weather History Graph

Search for Another Location

Airport or City:

Trip Planner

Search our weather history database for the weather conditions in past years. The results will help you decide how hot, cold, wet, or windy it might be!

Date:

Astronomy

Nov. 20, 2011 Rise Set
Actual Time 7:17 AM CST 4:29 PM CST
Civil Twilight 6:44 AM CST 5:03 PM CST
Nautical Twilight 6:07 AM CST 5:40 PM CST
Astronomical Twilight 5:31 AM CST 6:16 PM CST
Moon 1:28 AM CST (11/20) 1:34 PM CST (11/20)
Length of Visible Light 10h 19m
Length of Day
9h 12m
Waning Crescent, 27% of the Moon is Illuminated
Nov 20
Waning Crescent
Nov 25
New
Dec 2
First Quarter
Dec 10
Full
Dec 17
Last Quarter

Hourly Weather History & Observations

Time (CST) Temp. Windchill Dew Point Humidity Pressure Visibility Wind Dir Wind Speed Gust Speed Precip Events Conditions
12:15 AM 21.2 °F 10.9 °F 12.2 °F 68% 30.16 in 10.0 mi NNW 9.2 mph - N/A   Overcast
12:35 AM 19.4 °F 7.9 °F 12.2 °F 74% 30.17 in 10.0 mi NNW 10.4 mph - N/A   Overcast
12:55 AM 19.4 °F 7.2 °F 12.2 °F 74% 30.17 in 10.0 mi NNW 11.5 mph - N/A   Overcast
1:15 AM 19.4 °F 9.5 °F 12.2 °F 74% 30.17 in 10.0 mi NNW 8.1 mph - N/A   Overcast
1:35 AM 19.4 °F 7.9 °F 12.2 °F 74% 30.17 in 10.0 mi NNW 10.4 mph - N/A   Overcast
1:55 AM 19.4 °F 8.6 °F 10.4 °F 68% 30.19 in 10.0 mi NNW 9.2 mph - N/A   Overcast
2:15 AM 19.4 °F 10.4 °F 12.2 °F 74% 30.20 in 10.0 mi NNW 6.9 mph - N/A   Overcast
2:35 AM 17.6 °F 7.3 °F 10.4 °F 73% 30.22 in 10.0 mi NW 8.1 mph - N/A   Overcast
2:55 AM 17.6 °F 9.3 °F 10.4 °F 73% 30.23 in 10.0 mi NNW 5.8 mph - N/A   Overcast
3:15 AM 17.6 °F 9.3 °F 10.4 °F 73% 30.23 in 10.0 mi WNW 5.8 mph - N/A   Overcast
3:35 AM 17.6 °F 10.7 °F 10.4 °F 73% 30.22 in 10.0 mi NW 4.6 mph - N/A   Overcast
3:55 AM 17.6 °F 7.3 °F 10.4 °F 73% 30.22 in 10.0 mi NNW 8.1 mph - N/A   Overcast
4:15 AM 17.6 °F 8.2 °F 10.4 °F 73% 30.22 in 10.0 mi North 6.9 mph - N/A   Overcast
4:35 AM 15.8 °F 7.2 °F 8.6 °F 73% 30.23 in 10.0 mi NNW 5.8 mph - N/A   Overcast
4:55 AM 15.8 °F 7.2 °F 8.6 °F 73% 30.23 in 10.0 mi NW 5.8 mph - N/A   Overcast
5:55 AM 15.8 °F 6.1 °F 8.6 °F 73% 30.27 in 10.0 mi WNW 6.9 mph - N/A   Overcast
6:55 AM 15.8 °F 8.6 °F 8.6 °F 73% 30.30 in 10.0 mi NW 4.6 mph - N/A   Overcast
7:15 AM 15.8 °F - 8.6 °F 73% 30.31 in 10.0 mi Calm Calm - N/A   Overcast
7:35 AM 15.8 °F - 8.6 °F 73% 30.31 in 10.0 mi Calm Calm - N/A   Overcast
7:55 AM 15.8 °F - 8.6 °F 73% 30.31 in 10.0 mi Calm Calm - N/A   Overcast
8:15 AM 15.8 °F - 8.6 °F 73% 30.31 in 10.0 mi Calm Calm - N/A   Overcast
8:35 AM 15.8 °F 10.2 °F 8.6 °F 73% 30.32 in 10.0 mi West 3.5 mph - N/A   Overcast
8:55 AM 15.8 °F - 8.6 °F 73% 30.33 in 10.0 mi Calm Calm - N/A   Overcast
9:15 AM 15.8 °F - 10.4 °F 79% 30.34 in 10.0 mi Calm Calm - N/A   Overcast
9:35 AM 17.6 °F - 10.4 °F 73% 30.34 in 10.0 mi Calm Calm - N/A   Overcast
9:55 AM 17.6 °F - 10.4 °F 73% 30.35 in 10.0 mi Calm Calm - N/A   Overcast
10:15 AM 17.6 °F - 10.4 °F 73% 30.36 in 10.0 mi Calm Calm - N/A   Overcast
10:35 AM 17.6 °F 12.3 °F 10.4 °F 73% 30.37 in 10.0 mi SW 3.5 mph - N/A   Overcast
10:55 AM 17.6 °F 12.3 °F 10.4 °F 73% 30.36 in 10.0 mi SW 3.5 mph - N/A   Overcast
11:15 AM 17.6 °F 12.3 °F 10.4 °F 73% 30.36 in 10.0 mi SW 3.5 mph - N/A   Overcast
11:35 AM 19.4 °F 14.3 °F 12.2 °F 74% 30.36 in 10.0 mi West 3.5 mph - N/A   Overcast
12:15 PM 19.4 °F 14.3 °F 12.2 °F 74% 30.35 in 10.0 mi SW 3.5 mph - N/A   Overcast
12:55 PM 21.2 °F 16.4 °F 14.0 °F 74% 30.35 in 10.0 mi WSW 3.5 mph - N/A   Overcast
1:15 PM 21.2 °F 14.9 °F 14.0 °F 74% 30.35 in 10.0 mi SW 4.6 mph - N/A   Overcast
1:55 PM 21.2 °F - 15.8 °F 80% 30.35 in 10.0 mi Calm Calm - N/A   Overcast
2:15 PM 21.2 °F 16.4 °F 14.0 °F 74% 30.34 in 10.0 mi WSW 3.5 mph - N/A   Overcast
2:35 PM 21.2 °F 16.4 °F 14.0 °F 74% 30.34 in 10.0 mi SW 3.5 mph - N/A   Overcast
2:55 PM 21.2 °F 13.6 °F 14.0 °F 74% 30.33 in 10.0 mi WSW 5.8 mph - N/A   Overcast
3:15 PM 21.2 °F 12.6 °F 14.0 °F 74% 30.33 in 10.0 mi WSW 6.9 mph - N/A   Overcast
3:35 PM 21.2 °F 13.6 °F 14.0 °F 74% 30.33 in 10.0 mi West 5.8 mph - N/A   Overcast
3:55 PM 21.2 °F 16.4 °F 12.2 °F 68% 30.34 in 10.0 mi West 3.5 mph - N/A   Overcast
4:15 PM 21.2 °F 14.9 °F 12.2 °F 68% 30.33 in 10.0 mi West 4.6 mph - N/A   Overcast
4:35 PM 19.4 °F 14.3 °F 12.2 °F 74% 30.33 in 10.0 mi WSW 3.5 mph - N/A   Mostly Cloudy
4:55 PM 19.4 °F - 12.2 °F 74% 30.33 in 10.0 mi Calm Calm - N/A   Overcast
5:15 PM 19.4 °F - 14.0 °F 80% 30.33 in 10.0 mi Calm Calm - N/A   Mostly Cloudy
5:35 PM 17.6 °F - 12.2 °F 79% 30.33 in 10.0 mi Calm Calm - N/A   Scattered Clouds
6:15 PM 14.0 °F - 12.2 °F 93% 30.33 in 10.0 mi Calm Calm - N/A   Overcast
6:35 PM 14.0 °F - 10.4 °F 86% 30.33 in 10.0 mi Calm Calm - N/A   Overcast
6:55 PM 14.0 °F - 12.2 °F 93% 30.33 in 10.0 mi Calm Calm - N/A   Overcast
7:15 PM 12.2 °F - 10.4 °F 92% 30.32 in 10.0 mi Calm Calm - N/A   Mostly Cloudy
7:35 PM 12.2 °F - 10.4 °F 92% 30.32 in 10.0 mi Calm Calm - N/A   Mostly Cloudy
7:55 PM 12.2 °F - 10.4 °F 92% 30.32 in 10.0 mi Calm Calm - N/A   Overcast
8:15 PM 10.4 °F 4.0 °F 8.6 °F 92% 30.31 in 10.0 mi South 3.5 mph - N/A   Scattered Clouds
8:35 PM 10.4 °F - 6.8 °F 85% 30.32 in 10.0 mi Calm Calm - N/A   Scattered Clouds
9:15 PM 12.2 °F 6.1 °F 10.4 °F 92% 30.31 in 10.0 mi SW 3.5 mph - N/A   Mostly Cloudy
9:35 PM 10.4 °F - 8.6 °F 92% 30.31 in 10.0 mi Calm Calm - N/A   Scattered Clouds
9:55 PM 8.6 °F - 6.8 °F 92% 30.30 in 10.0 mi Calm Calm - N/A   Clear
10:15 PM 8.6 °F 2.0 °F 5.0 °F 85% 30.30 in 10.0 mi West 3.5 mph - N/A   Clear
10:35 PM 8.6 °F 2.0 °F 6.8 °F 92% 30.31 in 10.0 mi West 3.5 mph - N/A   Clear
10:55 PM 8.6 °F - 6.8 °F 92% 30.30 in 10.0 mi Calm Calm - N/A   Clear
11:15 PM 6.8 °F - 3.2 °F 85% 30.31 in 10.0 mi Calm Calm - N/A   Mostly Cloudy
11:35 PM 6.8 °F - 3.2 °F 85% 30.30 in 10.0 mi Calm Calm - N/A   Overcast
11:55 PM 10.4 °F 4.0 °F 6.8 °F 85% 30.31 in 10.0 mi SSW 3.5 mph - N/A   Overcast